This demonstration page uses our WeatherBlox Daily Observations layout. Learn more.

Left ArrowRight Arrow

Hourly Observations for February 7, 2022

Temp ( °F °C ) Dew Point ( °F °C ) Humidity (%) Winds ( mph kmh ) Pressure ( in mb ) Visibility ( mi km ) Precip ( " mm )
12:53 am 00:53 Clear 39 3.9 18 -7.8 43 43 SW 23 37 30.14 1021 10 16 0.00 0.00
1:53 am 01:53 Clear 37 2.8 18 -7.8 46 46 SW 24 39 30.11 1020 10 16 0.00 0.00
2:53 am 02:53 Clear 37 2.8 18 -7.8 46 46 SW 21 33 30.11 1020 10 16 0.00 0.00
3:53 am 03:53 Clear 38 3.3 18 -7.8 44 44 SW 25 41 30.08 1019 10 16 0.00 0.00
4:53 am 04:53 Clear 39 3.9 17 -8.3 41 41 SW 24 39 30.06 1018 10 16 0.00 0.00
5:53 am 05:53 Clear 40 4.4 16 -8.9 38 38 SW 24 39 30.04 1017 10 16 0.00 0.00
6:53 am 06:53 Clear 38 3.3 16 -8.9 41 41 SW 24 39 30.02 1017 10 16 0.00 0.00
7:53 am 07:53 Sunny 41 5 14 -10 33 33 SW 26 43 29.98 1015 10 16 0.00 0.00
8:53 am 08:53 Sunny 46 7.8 14 -10 27 27 SW 31 50 29.94 1014 10 16 0.00 0.00
9:53 am 09:53 Sunny 47 8.3 14 -10 26 26 SW 26 43 29.94 1014 10 16 0.00 0.00
10:53 am 10:53 Sunny 51 10.6 14 -10 23 23 SW 26 43 29.91 1013 10 16 0.00 0.00
11:53 am 11:53 Sunny 55 12.8 13 -10.6 19 19 SW 25 41 29.88 1012 10 16 0.00 0.00
12:53 pm 12:53 Sunny 55 12.8 14 -10 20 20 SSW 30 48 29.83 1010 10 16 0.00 0.00
1:53 pm 13:53 Sunny 60 15.6 15 -9.4 17 17 SW 30 48 29.77 1008 10 16 0.00 0.00
2:53 pm 14:53 Sunny 62 16.7 16 -8.9 17 17 W 33 54 29.75 1008 10 16 0.00 0.00
3:37 pm 15:37 Mostly Cloudy 60 15.6 16 -8.9 18 18 WNW 31 50 29.72 1007 9 14 0.00 0.00
3:51 pm 15:51 Cloudy with Haze 59 15 18 -8 20 20 WNW 22 35 29.76 1008 6 10 0.00 0.00
3:53 pm 15:53 Cloudy with Haze 58 14.4 17 -8.3 20 20 WNW 25 41 29.83 1010 6 10 0.00 0.00
4:53 pm 16:53 Mostly Sunny 54 12.2 19 -7.2 25 25 W 36 57 29.84 1010 10 16 0.00 0.00
5:53 pm 17:53 Clear 49 9.4 22 -5.6 35 35 W 25 41 29.84 1011 10 16 0.00 0.00
6:53 pm 18:53 Clear 47 8.3 21 -6.1 36 36 W 25 41 29.88 1012 10 16 0.00 0.00
7:53 pm 19:53 Clear 46 7.8 19 -7.2 34 34 W 29 46 29.90 1013 10 16 0.00 0.00
8:53 pm 20:53 Clear 42 5.6 21 -6.1 43 43 W 22 35 29.93 1014 10 16 0.00 0.00
9:53 pm 21:53 Clear 41 5 20 -6.7 43 43 W 24 39 29.95 1014 10 16 0.00 0.00
10:53 pm 22:53 Clear 41 5 20 -6.7 43 43 W 22 35 29.98 1015 10 16 0.00 0.00
11:53 pm 23:53 Clear 40 4.4 20 -6.7 45 45 WNW 14 22 30.01 1016 10 16 0.00 0.00

Powered by AerisWeather